Weather reports worldwide

Advertisment
Virac, Philippines (98446): temperature & dewpoint: 05.12.2019 16:00:00 - 11.12.2019 16:00:00 (PHT)Virac, Philippines (98446): wind speed: 05.12.2019 16:00:00 - 11.12.2019 16:00:00 (PHT)Virac, Philippines (98446): wind direction: 05.12.2019 16:00:00 - 11.12.2019 16:00:00 (PHT)Virac, Philippines (98446): reduced air pressure: 05.12.2019 16:00:00 - 11.12.2019 16:00:00 (PHT)Virac, Philippines (98446): visibility: 05.12.2019 16:00:00 - 11.12.2019 16:00:00 (PHT)
Date & Time tt [°C] td [°C] ff [km/h] ff [kn] dd ppp [hPa] vv [km]
11.12.2019 16:00:00 - - - - - - -
11.12.2019 15:00:00 - - - - - - -
11.12.2019 14:00:00 30,0 27,2 14 8 ENE 1009,8 20
11.12.2019 13:00:00 - - - - - - -
11.12.2019 12:00:00 - - - - - - -
11.12.2019 11:00:00 29,4 27,6 11 6 E 1012,4 18
11.12.2019 10:00:00 - - - - - - -
11.12.2019 09:00:00 - - - - - - -
11.12.2019 08:00:00 26,2 25,0 7 4 WNW 1012,8 18
11.12.2019 07:00:00 - - - - - - -
11.12.2019 06:00:00 - - - - - - -
11.12.2019 05:00:00 23,8 23,6 7 4 W 1011,1 9
11.12.2019 04:00:00 - - - - - - -
11.12.2019 03:00:00 - - - - - - -
11.12.2019 02:00:00 24,4 24,2 7 4 NE 1010,9 10
11.12.2019 01:00:00 - - - - - - -
11.12.2019 00:00:00 - - - - - - -
10.12.2019 23:00:00 25,0 23,9 7 4 NW 1011,9 12
10.12.2019 22:00:00 - - - - - - -
10.12.2019 21:00:00 - - - - - - -
10.12.2019 20:00:00 26,2 24,9 7 4 NE 1012,2 12
10.12.2019 19:00:00 - - - - - - -
10.12.2019 18:00:00 - - - - - - -
10.12.2019 17:00:00 28,2 26,4 7 4 WSW 1010,2 18
10.12.2019 16:00:00 - - - - - - -
10.12.2019 15:00:00 - - - - - - -
10.12.2019 14:00:00 29,2 27,4 7 4 ESE 1010,2 16
10.12.2019 13:00:00 - - - - - - -
10.12.2019 12:00:00 - - - - - - -
10.12.2019 11:00:00 28,8 25,4 7 4 E 1012,6 14
10.12.2019 10:00:00 - - - - - - -
10.12.2019 09:00:00 - - - - - - -
10.12.2019 08:00:00 25,2 24,4 7 4 - 1012,7 12
10.12.2019 07:00:00 - - - - - - -
10.12.2019 06:00:00 - - - - - - -
10.12.2019 05:00:00 25,0 24,5 7 4 SE 1010,9 8
10.12.2019 04:00:00 - - - - - - -
10.12.2019 03:00:00 - - - - - - -
10.12.2019 02:00:00 24,0 23,5 7 4 W 1011,4 9
10.12.2019 01:00:00 - - - - - - -
10.12.2019 00:00:00 - - - - - - -
09.12.2019 23:00:00 24,4 23,9 7 4 NW 1012,5 9
09.12.2019 22:00:00 - - - - - - -
09.12.2019 21:00:00 - - - - - - -
09.12.2019 20:00:00 24,4 23,9 7 4 SW 1013,1 10
09.12.2019 19:00:00 - - - - - - -
09.12.2019 18:00:00 - - - - - - -
09.12.2019 17:00:00 25,8 24,5 7 4 S 1011,0 18
09.12.2019 16:00:00 - - - - - - -
09.12.2019 15:00:00 - - - - - - -
09.12.2019 14:00:00 25,6 25,1 7 4 SSW 1010,7 18
09.12.2019 13:00:00 - - - - - - -
09.12.2019 12:00:00 - - - - - - -
09.12.2019 11:00:00 27,2 25,1 14 8 E 1012,6 18
09.12.2019 10:00:00 - - - - - - -
09.12.2019 09:00:00 - - - - - - -
09.12.2019 08:00:00 24,3 23,9 7 4 NW 1013,9 10
09.12.2019 07:00:00 - - - - - - -
09.12.2019 06:00:00 - - - - - - -
09.12.2019 05:00:00 24,2 23,7 7 4 NW 1012,3 9
09.12.2019 04:00:00 - - - - - - -
09.12.2019 03:00:00 - - - - - - -
09.12.2019 02:00:00 25,4 24,3 7 4 SW 1011,8 10
09.12.2019 01:00:00 - - - - - - -
09.12.2019 00:00:00 - - - - - - -
08.12.2019 23:00:00 25,4 24,2 7 4 NW 1013,2 10
08.12.2019 22:00:00 - - - - - - -
08.12.2019 21:00:00 - - - - - - -
08.12.2019 20:00:00 26,4 24,5 18 10 NNE 1013,3 10
08.12.2019 19:00:00 - - - - - - -
08.12.2019 18:00:00 - - - - - - -
08.12.2019 17:00:00 26,2 25,4 7 4 N 1012,2 12
08.12.2019 16:00:00 - - - - - - -
08.12.2019 15:00:00 - - - - - - -
08.12.2019 14:00:00 26,4 25,4 7 4 N 1011,8 10
08.12.2019 13:00:00 - - - - - - -
08.12.2019 12:00:00 - - - - - - -
08.12.2019 11:00:00 25,2 24,4 7 4 S 1014,2 10
08.12.2019 10:00:00 - - - - - - -
08.12.2019 09:00:00 - - - - - - -
08.12.2019 08:00:00 24,8 24,3 4 2 S 1013,6 7
08.12.2019 07:00:00 - - - - - - -
08.12.2019 06:00:00 - - - - - - -
08.12.2019 05:00:00 25,2 24,7 4 2 WSW 1011,0 12
08.12.2019 04:00:00 - - - - - - -
08.12.2019 03:00:00 - - - - - - -
08.12.2019 02:00:00 26,1 24,8 4 2 N 1011,0 12
08.12.2019 01:00:00 - - - - - - -
08.12.2019 00:00:00 - - - - - - -
07.12.2019 23:00:00 26,2 25,4 4 2 WNW 1012,4 12
07.12.2019 22:00:00 - - - - - - -
07.12.2019 21:00:00 - - - - - - -
07.12.2019 20:00:00 26,0 25,5 4 2 WNW 1011,3 12
07.12.2019 19:00:00 - - - - - - -
07.12.2019 18:00:00 - - - - - - -
07.12.2019 17:00:00 27,4 26,6 4 2 NNW 1010,6 15
07.12.2019 16:00:00 - - - - - - -
07.12.2019 15:00:00 - - - - - - -
07.12.2019 14:00:00 28,3 26,9 4 2 N 1010,2 15
07.12.2019 13:00:00 - - - - - - -
07.12.2019 12:00:00 - - - - - - -
07.12.2019 11:00:00 29,2 27,1 4 2 NW 1012,3 20
07.12.2019 10:00:00 - - - - - - -
07.12.2019 09:00:00 - - - - - - -
07.12.2019 08:00:00 27,1 25,2 4 2 W 1012,8 20
07.12.2019 07:00:00 - - - - - - -
07.12.2019 06:00:00 - - - - - - -
07.12.2019 05:00:00 24,6 23,2 7 4 E 1010,9 12
07.12.2019 04:00:00 - - - - - - -
07.12.2019 03:00:00 - - - - - - -
07.12.2019 02:00:00 25,2 24,9 7 4 ENE 1010,3 12
07.12.2019 01:00:00 - - - - - - -
07.12.2019 00:00:00 - - - - - - -
06.12.2019 23:00:00 26,6 25,3 7 4 E 1011,8 15
06.12.2019 22:00:00 - - - - - - -
06.12.2019 21:00:00 - - - - - - -
06.12.2019 20:00:00 27,2 26,2 7 4 E 1011,8 15
06.12.2019 19:00:00 - - - - - - -
06.12.2019 18:00:00 - - - - - - -
06.12.2019 17:00:00 29,4 27,4 7 4 E 1009,9 20
06.12.2019 16:00:00 - - - - - - -
06.12.2019 15:00:00 - - - - - - -
06.12.2019 14:00:00 29,6 28,1 7 4 E - 20
06.12.2019 13:00:00 - - - - - - -
06.12.2019 12:00:00 - - - - - - -
06.12.2019 11:00:00 30,4 27,1 7 4 E 1011,5 20
06.12.2019 10:00:00 - - - - - - -
06.12.2019 09:00:00 - - - - - - -
06.12.2019 08:00:00 26,6 24,7 4 2 ENE 1012,0 20
06.12.2019 07:00:00 - - - - - - -
06.12.2019 06:00:00 - - - - - - -
06.12.2019 05:00:00 24,2 23,7 4 2 WNW 1010,4 16
06.12.2019 04:00:00 - - - - - - -
06.12.2019 03:00:00 - - - - - - -
06.12.2019 02:00:00 25,0 24,2 4 2 WNW 1010,8 16
06.12.2019 01:00:00 - - - - - - -
06.12.2019 00:00:00 - - - - - - -
05.12.2019 23:00:00 26,8 25,5 7 4 ENE 1012,8 16
05.12.2019 22:00:00 - - - - - - -
05.12.2019 21:00:00 - - - - - - -
05.12.2019 20:00:00 27,5 25,5 4 2 E 1012,5 16
05.12.2019 19:00:00 - - - - - - -
05.12.2019 18:00:00 - - - - - - -
05.12.2019 17:00:00 29,2 27,4 4 2 WNW 1010,2 18
05.12.2019 16:00:00 - - - - - - -

tt = temperature
td = dewpoint
ff = wind speed
dd = wind direction
ppp = reduced air pressure
vv = visibility

Next stations